Location: Gwatt
(46.7204°N, 7.6223°E)
Time: 17:10:02
(UTC+00:00)

HJ-1C - Pass Details

Date: 18 September 2020
Orbit: 432 x 443 km, 97.1° (Epoch: 29 October)

Event Time Altitude Azimuth Distance (km) Brightness Sun altitude
Rises 18:24:00 0° 165° (SSE) 2,395 6.8 -9.2°
Reaches altitude 10° 18:26:00 10° 165° (SSE) 1,533 5.8 -9.6°
Maximum altitude 18:29:17 85° 76° (ENE) 442 3.3 -10.1°
Drops below altitude 10° 18:32:36 10° 349° (N) 1,551 6.5 -10.7°
Sets 18:34:38 0° 349° (NNW) 2,426 7.5 -11.0°
